Home   Weather   Metairie   Past weeks

Flag for USA Past Weather in Metairie, Louisiana, USA — Yesterday and Last 2 Weeks

Now
94 °F

Passing clouds.


Feels Like: 103 °F
Forecast: 81 / 90 °F
Wind: 12 mph from East

Location: New Orleans International Airport

Current Time: Aug 30, 2016 at 5:53:19 PM

Latest Report: Aug 30, 2016 at 4:53 PM


Visibility: 10 mi

Pressure: 29.89 "Hg

Humidity: 51%

Dew Point: 73 °F

Location of MetairieLocation

Past Weather in Metairie — Graph

°F

Metairie Temperature Yesterday

Maximum temperature yesterday: 94 °F (at 12:53 PM)
Minimum temperature yesterday: 82 °F (at 12:53 AM)
Average temperature yesterday: 86 °F

High & Low Weather Summary for the Past Weeks

 TemperatureHumidityPressure
High97 °F (Aug 23, 3:53 PM)90% (Aug 21, 6:53 AM)30.22 "Hg (Aug 21, 6:53 AM)
Low78 °F (Aug 26, 6:53 AM)45% (Aug 23, 3:53 PM)29.89 "Hg (Aug 30, 3:53 PM)
Average85 °F74%30.04 "Hg
* Reported Aug 15 3:53 PM — Aug 30 3:53 PM, Metairie, Weather by CustomWeather, © 2016

Note: Actual official high and low records may vary slightly from our data, if they occured in-between our weather recording intervals... More about our weather records

Advertising

Metairie Weather History for the Previous 24 Hours

Scroll right to see more
 ConditionsComfort  
Time TempWeatherWind HumidityBarometerVisibility
3:53 PM
Tue, Aug 30
95 °FScattered clouds.7 mph49%29.89 "Hg10 mi
2:53 PM94 °FPassing clouds.12 mph51%29.91 "Hg10 mi
1:53 PM94 °FPassing clouds.13 mph58%29.93 "Hg10 mi
12:53 PM93 °FPassing clouds.15 mph62%29.95 "Hg10 mi
11:53 AM91 °FPassing clouds.12 mph68%29.96 "Hg10 mi
10:53 AM89 °FPassing clouds.10 mph70%29.97 "Hg10 mi
9:53 AM88 °FPassing clouds.9 mph70%29.97 "Hg10 mi
8:53 AM85 °FPassing clouds.12 mph75%29.97 "Hg10 mi
7:53 AM84 °FPassing clouds.9 mph74%29.96 "Hg10 mi
6:53 AM82 °FPassing clouds.9 mph85%29.94 "Hg10 mi
5:53 AM82 °FPassing clouds.8 mph88%29.93 "Hg10 mi
4:53 AM83 °FPassing clouds.7 mph85%29.93 "Hg10 mi
3:53 AM83 °FPassing clouds.6 mph85%29.92 "Hg10 mi
2:53 AM83 °FPassing clouds.6 mph85%29.94 "Hg10 mi
1:53 AM83 °FPassing clouds.5 mph85%29.94 "Hg10 mi
12:53 AM83 °FPassing clouds.3 mph79%29.96 "Hg10 mi
11:53 PM
Mon, Aug 29
83 °FPassing clouds.3 mph79%29.97 "Hg10 mi
10:53 PM84 °FPassing clouds.No wind74%29.98 "Hg10 mi
9:53 PM85 °FPassing clouds.6 mph72%29.96 "Hg10 mi
8:53 PM86 °FPassing clouds.9 mph65%29.94 "Hg10 mi
7:53 PM87 °FPartly sunny.6 mph61%29.93 "Hg10 mi
6:53 PM89 °FPartly sunny.8 mph53%29.92 "Hg10 mi
5:53 PM89 °FBroken clouds.13 mph55%29.93 "Hg10 mi
Weather by CustomWeather, © 2016

See weather overviewHow to use our weather pages